Regional Weather Roundup
Issued by NWS

Home | Current Version | Previous Version | Graphics & Text | Print | Product List | Glossary Off
Versions: 1 2 3 4 5 6 7 8 9 10 11 12 13 14 15 16 17 18 19 20 21 22 23 24 25 26 27 28 29 30 31 32 33 34 35 36 37 38 39 40 41 42 43 44 45 46 47 48 49 50

993
ASUS43 KDMX 110403
RWRIA

WEATHER ROUNDUP FOR IOWA
NATIONAL WEATHER SERVICE DES MOINES IA
1000 PM CST WED FEB 10 2016

NOTE: "FAIR" INDICATES FEW OR NO CLOUDS BELOW 12,000 FEET WITH NO
SIGNIFICANT WEATHER AND/OR OBSTRUCTIONS TO VISIBILITY.

* - THESE STATIONS ARE NOT NWS STATIONS...THUS NOT UNDER NWS
QUALITY CONTROL.  THEY ALSO DO NOT REPORT WEATHER SUCH
AS PRECIPITATION OR FOG.

IAZ001>003-012>014-020>022-031>034-043>046-110500-
   NORTHWEST IOWA

CITY           SKY/WX    TMP DP  RH WIND       PRES   REMARKS
CARROLL *      CLOUDY    14  10  85 NE10      30.17S WCI   1
CHEROKEE *     CLOUDY    14  10  83 NE8       30.19S WCI   3
DENISON *      CLOUDY    16  12  86 NE13      30.15R WCI   2
LE MARS *      CLOUDY    16  14  93 NE8       30.20S WCI   5
ORANGE CITY *  CLOUDY    14  10  85 CALM      30.17R
SHELDON *      CLOUDY    12   9  85 NE12      30.18R WCI  -2
SIOUX CITY     CLOUDY    19  12  74 E12       30.18S WCI   7
SPENCER        CLOUDY    12   5  73 NE9       30.19R WCI   0
STORM LAKE *   CLOUDY    12  10  92 NE12G17   30.16S WCI  -2
$$

IAZ055>058-069>071-079>083-090>094-110500-
   SOUTHWEST IOWA

CITY           SKY/WX    TMP DP  RH WIND       PRES   REMARKS
ATLANTIC *     CLOUDY    19  16  86 NE12      30.14R WCI   7
AUDUBON *      MOCLDY    16  10  79 NE8       30.15S WCI   5
CLARINDA *     CLOUDY    25  21  86 NE12G18   30.13R WCI  14
COUNCIL BLFS * CLOUDY    21  19  93 NE12      30.13R WCI   9
CRESTON *      CLOUDY    19  16  86 NE13G18   30.13R WCI   7
HARLAN  *      CLOUDY    18  16  93 NE14      30.18R WCI   4
LAMONI         CLOUDY    21  17  84 NE12      30.12R WCI   9
SHENANDOAH *   CLOUDY    27  25  93 NE14      30.12R WCI  15
$$

IAZ047>049-059>061-072>074-084-110500-
   CENTRAL IOWA

CITY           SKY/WX    TMP DP  RH WIND       PRES   REMARKS
AMES           CLOUDY    14   6  70 NE8       30.19R WCI   3
ANKENY *       CLOUDY    16  10  79 N7        30.20R WCI   6
BOONE *        CLOUDY    12   7  79 NE8       30.17R WCI   1
CHARITON *     CLOUDY    19  14  79 NE7       30.15R WCI  10
DES MOINES     CLOUDY    18  10  71 NE6       30.18R WCI  10
GRINNELL*      CLOUDY    16   9  73 N6        30.18R WCI   7
KNOXVILLE *    CLOUDY    18  10  73 NE7       30.16R WCI   8
MARSHALLTOWN   CLOUDY    13   3  64 N10       30.19R WCI   0
NEWTON *       CLOUDY    16   7  67 NE9       30.18R WCI   4
PELLA *        CLOUDY    18  11  75 CALM      30.19R
$$

IAZ004>006-015-016-023>025-035-036-110500-
   NORTH CENTRAL IOWA

CITY           SKY/WX    TMP DP  RH WIND       PRES   REMARKS
ALGONA *       CLOUDY    10   5  79 NE9       30.19R WCI  -2
CLARION *      CLOUDY     7  -2  66 NE6       30.20R WCI  -3
ESTHERVILLE    CLOUDY    10   3  73 N12       30.19S WCI  -5
FORT DODGE *   CLOUDY    12   3  67 NE6       30.20S WCI   3
MASON CITY     CLOUDY     4  -2  76 N6        30.21R WCI  -7
FOREST CITY *  CLEAR      7   1  78 CALM      30.20S
WEBSTER CITY * CLOUDY    12   1  62 NE7       30.18R WCI   2
IOWA FALLS *   CLOUDY    10   1  67 CALM      30.20R
$$

IAZ007>011-017>019-026>030-037>042-050>054-066-110500-
   NORTHEAST IOWA

CITY           SKY/WX    TMP DP  RH WIND       PRES   REMARKS
CEDAR RAPIDS   CLOUDY    13   3  64 N12       30.18R WCI  -1
CHARLES CITY * CLOUDY     7  -2  66 N7        30.21R WCI  -5
CLINTON *      CLOUDY    10   5  80 N5        30.19R WCI   2
DECORAH *      CLOUDY     7  -2  66 N7        30.18R WCI  -5
DUBUQUE        CLOUDY    11   1  64 N8        30.17R WCI  -1
MONTICELLO *   CLOUDY    10   1  67 N8        30.19S WCI  -1
OELWEIN *      CLOUDY     7   0  72 N6        30.19S WCI  -3
WATERLOO       CLOUDY     8  -1  66 N9        30.20R WCI  -5
$$

IAZ064-065-067-068-078-110500-
   EAST CENTRAL IOWA

CITY           SKY/WX    TMP DP  RH WIND       PRES   REMARKS
DAVENPORT      CLOUDY    13   5  70 N7        30.19R WCI   3
IOWA CITY      CLOUDY    15   3  59 N9        30.21R WCI   3
MT. PLEASANT * CLOUDY    21  14  74 N5        30.18R WCI  15
MUSCATINE *    CLOUDY    16   5  62 N10       30.21R WCI   3
QUAD CITIES    PTCLDY    15   3  59 N6        30.19R WCI   6
$$

IAZ062-063-075>077-085>089-095>099-110500-
   SOUTHEAST IOWA

CITY           SKY/WX    TMP DP  RH WIND       PRES   REMARKS
BURLINGTON     CLOUDY    19  12  74 N5        30.17R WCI  12
FAIRFIELD *    CLOUDY    18  10  73 NE3       30.18R
FORT MADISON * CLOUDY    18  14  86 CALM      30.18R
KEOKUK *       CLOUDY    19  16  86 NE5       30.17R WCI  13
OSKALOOSA *    CLOUDY    18  12  78 NE6       30.19R WCI   9
OTTUMWA        CLOUDY    18  13  80 NE7       30.17R WCI   9
WASHINGTON *   CLOUDY    18   7  62 N8        30.19R WCI   7
$$

ABBREVIATIONS USED IN REMARKS
   TC - TEMPERATURES IN CELSIUS
  WCI - WIND CHILL INDEX
   HX - HEAT INDEX
  VSB - VISIBILITY
$$





USA.gov is the U.S. government's official web portal to all federal, state and local government web resources and services.